Location: Balaclava NSW 2575, Australia
(34.4510°S, 150.4953°E)
Time: 22:51:27
(UTC+10:00)

AO-7 - Visible Passes

Search period start: 31 July 2021 00:00
Search period end: 10 August 2021 00:00
Orbit: 1440 x 1458 km, 101.9° (Epoch: 31 July)

Date Brightness Start Highest point End Pass type
(mag) Time Alt. Az. Time Alt. Az. Time Alt. Az.
31 Jul ? 18:30:08 10° SSW 18:33:23 13° SW 18:36:39 10° WSW visible
02 Aug ? 18:22:31 10° SSW 18:26:32 15° SW 18:30:34 10° W visible
04 Aug ? 18:15:01 10° SSW 18:19:40 16° SW 18:24:19 10° W visible
06 Aug ? 18:07:37 10° SSW 18:12:47 18° SW 18:17:57 10° W visible
08 Aug ? 18:00:17 10° SSW 18:05:54 20° SW 18:11:31 10° W visible
